Madison, WI

6:36 PM CDT on October 21, 2019 (GMT -0500)
Dane County Regional-Truax

Weather History for KMSN - September, 2019

Change the Weather History Date:

Tuesday, September 17, 2019

  Actual Average Record
Temperature  
Mean Temperature 69 °F 60 °F  
Max Temperature 79 °F 71 °F 90 °F (1955)
Min Temperature 59 °F 50 °F 36 °F (1980)
Degree Days  
Heating Degree Days 0 6  
Month to date heating degree days 21 63  
Since 1 July heating degree days 34 100  
Cooling Degree Days 4 1  
Month to date cooling degree days 44 41  
Year to date cooling degree days 611 554  
Growing Degree Days 19 (Base 50)    
Moisture  
Dew Point 62 °F    
Average Humidity 78    
Maximum Humidity 93    
Minimum Humidity 62    
Precipitation  
Precipitation 0.00 in 0.11 in 2.64 in (1907)
Month to date precipitation 3.57 1.85  
Year to date precipitation 33.16 26.67  
Snow  
Snow 0.00 in 0.00 in 0.00 in (2018)
Month to date snowfall 0.0 0.0  
Since 1 July snowfall 0.0 0.0  
Since 1 September snowfall 0.0 0.0  
Snow Depth 0.00 in    
Sea Level Pressure  
Sea Level Pressure 30.13 in    
Wind  
Wind Speed 8 mph (SSE)    
Max Wind Speed 15 mph    
Max Gust Speed 20 mph    
Visibility 8 miles    
Events      
T = Trace of Precipitation, MM = Missing Value Source: NWS Daily Summary

Daily Weather History Graph

Daily Weather History Graph

Search for Another Location

Airport or City:

Astronomy

Sep. 17, 2019 Rise Set
Actual Time 6:38 AM CDT 7:04 PM CDT
Civil Twilight 6:10 AM CDT 7:32 PM CDT
Nautical Twilight 5:36 AM CDT 8:06 PM CDT
Astronomical Twilight 5:02 AM CDT 8:40 PM CDT
Moon 9:02 PM CDT (9/17) 9:47 AM CDT (9/17)
Length of Visible Light 13h 22m
Length of Day
12h 25m
Waning Gibbous, 89% of the Moon is Illuminated
Sep 17
Waning Gibbous
Sep 21
Last Quarter
Sep 28
New
Oct 5
First Quarter
Oct 13
Full

Hourly Weather History & Observations

Time (CDT) Temp. Dew Point Humidity Pressure Visibility Wind Dir Wind Speed Gust Speed Precip Events Conditions
12:53 AM 64.9 °F 60.1 °F 84% 30.12 in 10.0 mi South 4.6 mph - N/A   Clear
1:53 AM 62.1 °F 59.0 °F 90% 30.13 in 10.0 mi Calm Calm - N/A   Clear
2:53 AM 59.0 °F 57.9 °F 96% 30.13 in 9.0 mi Calm Calm - N/A   Clear
3:53 AM 60.1 °F 57.9 °F 93% 30.12 in 10.0 mi Calm Calm - N/A   Clear
4:53 AM 60.1 °F 57.9 °F 93% 30.13 in 10.0 mi Calm Calm - N/A   Clear
5:53 AM 63.0 °F 60.1 °F 90% 30.13 in 10.0 mi SSE 5.8 mph - N/A   Mostly Cloudy
6:53 AM 62.1 °F 59.0 °F 90% 30.15 in 7.0 mi SSE 6.9 mph - N/A   Mostly Cloudy
7:42 AM 62.1 °F 60.1 °F 93% 30.17 in 2.0 mi South 8.1 mph - N/A   Mostly Cloudy
7:51 AM 62.6 °F 60.8 °F 94% 30.18 in 2.0 mi South 8.1 mph - N/A   Mostly Cloudy
7:53 AM 62.1 °F 60.1 °F 93% 30.18 in 2.0 mi South 8.1 mph - N/A   Mostly Cloudy
8:11 AM 62.1 °F 60.1 °F 93% 30.18 in 2.0 mi SSE 9.2 mph - N/A   Mostly Cloudy
8:31 AM 63.0 °F 61.0 °F 93% 30.18 in 2.0 mi South 6.9 mph - N/A   Overcast
8:35 AM 63.0 °F 61.0 °F 93% 30.18 in 4.0 mi South 5.8 mph - N/A   Overcast
8:53 AM 63.0 °F 61.0 °F 93% 30.17 in 5.0 mi SSE 9.2 mph - N/A   Overcast
9:02 AM 64.0 °F 61.0 °F 90% 30.18 in 5.0 mi SSE 5.8 mph - N/A   Overcast
9:53 AM 66.9 °F 62.1 °F 84% 30.18 in 9.0 mi SSE 11.5 mph - N/A   Mostly Cloudy
10:02 AM 66.9 °F 62.1 °F 84% 30.19 in 10.0 mi South 11.5 mph - N/A   Mostly Cloudy
10:38 AM 69.1 °F 62.1 °F 78% 30.18 in 10.0 mi SSE 12.7 mph - N/A   Scattered Clouds
10:53 AM 70.0 °F 62.1 °F 76% 30.18 in 10.0 mi South 11.5 mph - N/A   Scattered Clouds
11:53 AM 73.0 °F 63.0 °F 71% 30.16 in 10.0 mi South 10.4 mph - N/A   Partly Cloudy
12:53 PM 75.9 °F 63.0 °F 64% 30.13 in 10.0 mi South 12.7 mph - N/A   Scattered Clouds
1:53 PM 77.0 °F 64.0 °F 64% 30.11 in 10.0 mi South 11.5 mph - N/A   Scattered Clouds
2:53 PM 79.0 °F 64.0 °F 60% 30.10 in 10.0 mi South 10.4 mph - N/A   Mostly Cloudy
3:53 PM 78.1 °F 64.9 °F 64% 30.09 in 10.0 mi SSE 10.4 mph - N/A   Mostly Cloudy
4:53 PM 78.1 °F 64.9 °F 64% 30.08 in 10.0 mi SE 11.5 mph - N/A   Scattered Clouds
5:53 PM 77.0 °F 66.0 °F 69% 30.07 in 10.0 mi SE 10.4 mph - N/A   Mostly Cloudy
6:53 PM 73.9 °F 64.9 °F 73% 30.07 in 10.0 mi SE 9.2 mph - N/A   Mostly Cloudy
7:53 PM 72.0 °F 64.0 °F 76% 30.07 in 10.0 mi SE 8.1 mph - N/A   Partly Cloudy
8:53 PM 70.0 °F 64.0 °F 81% 30.09 in 10.0 mi SSE 8.1 mph - N/A   Clear
9:53 PM 68.0 °F 63.0 °F 84% 30.10 in 10.0 mi SE 6.9 mph - N/A   Clear
10:53 PM 66.9 °F 62.1 °F 84% 30.10 in 10.0 mi SSE 6.9 mph - N/A   Clear
11:53 PM 66.9 °F 61.0 °F 81% 30.09 in 10.0 mi South 9.2 mph - N/A   Clear